Rbgn^[z[y[W
メイン
   新天体発見情報
     Comet C/2018 M1 (Catalina)
投稿するにはまず登録を

スレッド表示 | 古いものから 前のトピック | 次のトピック | 下へ
投稿者 スレッド
佐藤裕久
投稿日時: 2018-7-10 22:49
モデレータ
登録日: 2005-6-12
居住地: 日本
投稿: 2505
オンライン
Comet C/2018 M1 (Catalina)

6月25日、H. GroellerとR. A. KowalskiがCatalinaスカイサーベイの0.68-m Schmidt望遠鏡で得た
画像から小惑星状天体を発見した。
小惑星センターのPCCP webpageに公表後、佐藤英貴氏(東京都文京区, iTelescope天文台,6月25.8日
UT, 30秒露出14枚のスタック, 0.51-m f/6.8 アストログラフ, Auberry, カリフォルニア州, 遠隔
操作: 強い集光のある12"のコマが見え、p.a. 340°に伸びている。6".5の円形範囲で測定したw-
バンド全光度は17.7等であった)らCCD観測者によって彗星状と観測された。

発見位置は次のとおり、

     2018 UT             R.A. (2000) Decl.       Mag.   Observer
     June 25.43473    1 34 14.43   +10 20 51.4   17.6   Groeller
          25.44514    1 34 16.10   +10 21 23.5   16.6     "
          25.45034    1 34 17.02   +10 21 38.4   16.7     "

放物線軌道要素と位置推算表は次のとおり、

Orbital elements:
    C/2018 M1 (Catalina)
T 2018 July  9.96303 TT                                 MPCW
q   1.3153314            (2000.0)            P               Q
                   Peri.   14.10094     +0.97761213     +0.03454061
                   Node   340.00787     -0.19614395     +0.50668938
e   1.0            Incl.   37.37983     +0.07617130     +0.86143649
From 29 observations 2018 June 25-July 1.

Ephemeris:
    C/2018 M1 (Catalina)
Date    TT    R. A. (2000) Decl.     Delta      r     Elong.  Phase   m1
2018 06 02    00 38 24.6 -07 39 42   1.5066  1.4317    65.9    40.3  17.9
...
2018 06 17    01 13 50.8 +03 31 00   1.3787  1.3595    67.2    43.6  17.5
...
2018 06 25    01 33 10.1 +09 59 18   1.3269  1.3343    67.9    44.9  17.4
...
2018 07 01    01 48 02.2 +15 00 02   1.2964  1.3222    68.5    45.7  17.3
2018 07 02    01 50 33.4 +15 50 40   1.2920  1.3207    68.6    45.8  17.3
2018 07 03    01 53 05.2 +16 41 25   1.2878  1.3195    68.7    45.9  17.3
...
2018 07 09    02 08 34.3 +21 46 58   1.2670  1.3154    69.3    46.3  17.2
...
2018 07 17    02 30 07.8 +28 31 26   1.2504  1.3195    70.3    46.5  17.2
...
2018 08 01    03 14 05.6 +40 26 23   1.2513  1.3560    72.7    45.6  17.3

(CBET 4529、MPEC 2018-N05)
スレッド表示 | 古いものから 前のトピック | 次のトピック | トップ

投稿するにはまず登録を
 
© 1999 Tsutomu Seki.